Temperature
18 18 18 18 18 18 18 18 18 18 17 17 17 17 17 17 17 16 16 15 15 15 15 15 15 15 15 15 14 14 14 14 14 15 15 15 15 15 14 14 14 14 14
19 18 19 18 18 18 18 18 18 18 18 18 18 18 17 17 17 17 17 16 15 15 16 15 15 15 15 15 15 14 14 14 14 14 14 14 14 14 14 14 14 13 13
19 19 19 19 19 18 18 18 18 18 18 18 17 18 18 17 17 17 17 17 16 16 16 16 16 15 15 15 15 15 15 14 14 14 14 14 14 14 14 14 13 13 13
20 19 19 19 19 19 18 18 18 18 18 18 17 17 17 17 17 17 17 17 17 16 16 16 16 16 16 15 15 15 15 14 14 14 14 14 14 14 14 14 13 13 13
20 20 20 19 19 19 18 18 18 17 17 17 17 17 17 17 17 17 17 16 16 16 16 16 16 16 15 15 15 15 14 14 14 14 14 14 14 14 14 14 14 13 13
20 19 19 19 18 18 18 17 17 17 17 17 17 16 16 16 16 16 16 16 16 16 16 16 15 15 15 15 15 15 14 14 14 14 14 14 14 14 14 14 14 13 13
19 18 18 18 18 17 17 17 17 16 16 16 16 16 16 16 16 16 16 16 15 15 15 15 15 14 14 15 15 15 14 14 14 14 14 14 14 14 14 13 13 13 13
18 17 17 17 16 16 16 16 16 15 15 15 15 15 15 15 15 15 15 15 15 14 14 14 14 14 14 14 14 14 14 14 14 14 14 14 14 14 14 13 13 13 13
16 16 16 16 15 15 15 15 15 15 14 14 14 14 14 14 14 14 14 14 14 13 13 13 13 13 13 13 13 13 13 13 13 13 13 13 13 13 13 13 12 12 12
14 14 14 14 14 14 14 14 14 14 13 13 13 13 13 13 13 13 13 13 12 12 12 12 12 12 12 12 12 12 12 12 12 12 12 12 12 12 12 12 12 11 11
13 13 13 13 13 13 13 13 13 13 13 13 13 13 12 12 12 12 12 12 11 11 11 11 11 11 11 11 11 11 11 11 11 11 11 11 11 12 12 12 12 12 11
12 12 12 12 12 12 12 12 12 12 12 12 12 12 12 12 11 11 11 10 10 10 9 9 9 9 10 10 10 10 10 10 10 10 10 10 10 11 11 11 11 11 12
11 11 11 11 11 11 11 11 11 12 12 11 11 11 11 11 10 10 10 9 9 9 8 8 8 8 9 9 9 9 9 9 9 9 9 10 10 10 10 11 11 11 11
11 11 11 11 11 11 11 11 11 11 11 11 10 10 10 9 9 9 9 8 8 7 7 7 7 8 8 8 8 8 9 9 9 9 9 9 9 10 10 10 10 10 10
11 11 11 11 12 11 11 11 11 11 11 10 10 9 9 8 8 8 7 7 7 6 6 6 6 6 6 7 7 8 8 8 8 9 9 9 9 9 9 10 10 10 10
10 10 11 11 11 11 11 11 11 11 10 10 9 9 8 8 7 7 7 6 6 6 5 5 5 5 6 6 6 7 7 7 8 8 8 8 8 8 8 9 9 9 9
10 10 10 10 10 10 10 10 10 10 10 9 9 8 7 7 6 6 6 5 5 5 5 5 5 5 5 5 5 5 6 6 6 7 7 7 7 8 8 8 8 9 9
9 10 10 10 10 9 10 10 9 9 9 8 8 7 6 6 5 5 5 5 4 4 4 4 4 4 4 4 4 5 5 5 6 6 6 6 7 7 7 7 8 8 8
9 9 9 9 9 9 9 9 8 8 7 7 6 6 5 4 4 4 4 4 3 3 3 3 4 3 3 4 4 4 4 5 5 5 5 6 6 6 6 7 7 7 8
9 9 9 8 8 8 8 7 7 6 6 5 5 4 4 3 3 3 3 3 3 3 3 3 3 3 3 3 3 3 4 4 4 5 5 5 5 6 6 6 6 7 7
8 8 8 8 8 7 6 6 5 5 4 4 3 3 3 2 2 2 2 2 2 2 2 2 2 2 2 2 3 3 3 3 4 4 4 5 5 5 5 6 6 6 7
7 7 7 7 6 5 5 4 4 3 3 3 2 2 2 2 2 1 1 1 1 1 1 2 2 2 2 2 2 2 3 3 3 3 4 4 4 5 5 5 6 6 6
6 6 6 5 5 4 4 3 3 2 2 2 1 1 1 1 1 1 1 1 1 1 1 1 1 2 2 2 2 2 2 3 3 3 3 3 4 4 4 5 5 6 6
5 5 4 4 3 3 2 2 2 1 1 1 1 1 0 0 0 0 0 0 0 1 1 1 1 1 2 2 2 2 2 2 3 3 3 3 4 4 4 5 5 5 6
4 4 3 2 2 2 2 1 1 1 1 1 0 0 0 -0 -0 -0 -0 -0 0 0 0 1 1 1 1 1 2 2 2 2 3 3 3 3 4 4 4 4 5 5 6
3 2 2 2 2 1 1 1 1 1 0 0 0 -0 -0 -0 -0 -1 -1 -0 -0 0 0 1 1 1 1 1 2 2 2 3 3 3 3 4 4 4 4 4 4 5 5
Wind_Speed
12 11 10 10 10 10 8 7 7 6 6 7 8 8 8 8 8 8 8 7 7 7 7 7 6 6 4 4 3 3 4 4 5 5 4 3 2 3 4 6 9 11 13
11 11 11 10 10 10 10 9 8 8 8 8 9 9 9 10 9 10 10 9 8 8 8 8 8 7 8 6 5 5 5 4 5 6 5 4 5 5 6 6 9 12 13
13 12 11 10 9 9 9 9 9 9 9 9 9 10 10 10 10 10 10 10 9 9 9 9 9 9 8 7 8 7 6 7 6 6 7 6 6 6 6 7 8 7 13
11 11 10 9 9 8 8 8 8 8 9 9 9 10 10 9 9 9 10 10 10 10 10 10 10 10 10 9 9 9 8 7 7 6 7 6 6 7 5 6 6 7 8
5 5 5 6 6 6 7 7 6 7 9 8 8 8 8 8 9 9 9 11 10 10 9 9 10 11 13 11 11 9 9 9 8 8 8 7 7 6 6 6 7 6 6
5 4 3 2 1 1 2 3 4 5 5 6 6 6 8 9 8 10 8 8 8 9 10 9 10 12 15 16 17 15 13 11 10 9 9 9 9 8 6 6 6 6 6
9 8 8 6 5 4 3 3 2 2 3 4 4 5 5 5 5 5 7 6 7 7 8 8 11 13 11 11 14 17 18 19 17 13 13 12 11 8 7 8 7 8 8
11 10 10 9 8 7 6 5 5 4 3 3 3 4 4 3 2 2 4 6 7 7 8 8 9 10 12 10 10 12 13 14 16 16 15 16 15 11 10 9 9 9 8
11 10 9 8 8 8 8 7 6 5 5 5 4 4 4 3 1 1 2 4 6 7 8 9 9 9 11 12 11 11 12 12 16 19 18 18 21 21 15 10 9 10 11
10 9 8 7 6 7 7 6 5 5 5 5 4 4 4 3 1 1 2 3 5 6 6 8 10 8 8 8 8 10 12 12 12 14 13 15 17 17 19 16 13 13 12
8 8 7 6 5 5 5 4 5 4 4 4 5 5 4 2 0 2 2 2 4 6 7 7 6 8 11 12 11 11 14 13 12 12 12 12 11 12 13 14 15 15 16
6 6 6 6 6 6 5 4 4 4 5 4 3 4 4 3 4 3 2 2 4 6 7 8 8 13 15 16 14 16 18 15 12 12 13 13 12 12 12 13 15 16 17
5 4 3 3 3 3 4 5 5 4 4 5 5 6 5 4 3 3 3 5 7 6 8 12 14 17 17 16 18 20 16 13 12 14 14 14 12 12 11 11 12 15 16
4 4 4 3 3 2 3 4 4 4 4 4 5 6 6 5 5 5 5 6 8 9 9 13 16 18 18 18 17 15 12 12 13 14 13 13 11 11 12 11 12 11 12
6 5 7 6 4 3 4 4 4 3 3 3 4 5 6 6 5 5 6 8 9 10 11 12 12 12 12 11 10 10 10 10 11 11 12 13 13 12 12 11 11 11 12
7 7 7 7 6 5 5 6 5 5 4 6 6 6 5 6 7 9 11 12 14 14 11 12 13 12 12 12 12 12 11 11 11 11 11 11 12 12 12 11 11 12 13
6 7 7 7 8 7 7 7 7 5 3 5 6 7 7 10 11 12 14 15 16 14 10 11 12 12 11 11 12 13 13 12 11 11 12 12 11 12 12 12 12 12 13
8 8 6 6 7 8 8 7 7 8 8 6 6 6 7 9 11 14 14 12 12 10 10 11 11 11 11 12 12 12 13 13 12 12 12 12 12 12 12 12 12 13 12
8 7 6 7 8 8 7 8 9 10 9 9 9 8 7 10 12 13 11 9 11 11 11 11 11 11 12 12 12 13 13 13 13 13 13 12 12 11 11 12 12 15 13
6 5 5 7 8 8 8 9 9 9 9 9 9 10 11 12 12 11 10 9 10 11 11 11 11 12 12 12 12 12 13 13 13 12 12 11 10 10 12 13 11 11 10
9 8 8 8 7 8 8 9 9 9 9 10 10 10 12 12 11 11 11 11 11 11 11 12 12 12 12 11 11 13 14 13 12 11 11 11 11 10 10 10 10 10 10
8 8 8 8 8 7 8 8 8 9 10 10 10 11 13 11 10 10 11 11 11 11 11 11 12 11 11 12 12 12 13 12 12 12 12 11 11 10 10 10 10 10 9
7 8 8 8 8 8 8 8 9 9 9 10 10 10 10 10 11 11 12 12 11 11 11 11 12 12 11 11 11 11 11 11 11 12 13 12 11 11 10 10 12 11 10
7 8 8 8 8 8 9 9 9 9 10 10 10 10 10 10 11 12 12 12 12 12 11 11 12 15 18 14 11 11 10 12 13 11 14 13 13 11 11 11 11 11 9
7 8 7 7 8 8 8 8 9 9 9 9 10 10 10 11 11 11 12 11 13 13 15 13 11 13 17 18 16 14 16 17 15 13 12 11 13 13 12 12 11 10 9
7 7 7 7 7 7 7 8 8 9 9 9 9 9 10 10 11 11 12 12 13 13 13 12 14 17 19 16 18 20 18 16 16 15 11 10 11 11 11 10 12 10 9
Wind_Direction
196 198 206 196 204 209 217 224 221 213 195 180 185 191 196 199 197 202 225 228 211 217 227 229 224 239 270 290 268 240 236 239 256 273 278 285 208 214 214 238 261 255 248
198 197 202 203 204 206 210 215 216 211 206 197 196 201 207 207 202 202 214 229 222 218 224 231 229 227 221 237 258 267 258 246 242 262 271 278 262 230 217 219 247 261 260
197 198 199 202 207 211 214 213 212 211 212 211 204 207 212 214 207 207 211 222 228 224 222 224 227 230 229 226 227 239 247 251 232 237 247 243 245 243 235 231 240 247 261
193 194 196 201 207 211 214 216 213 211 213 218 216 216 215 218 219 216 217 220 226 228 227 226 225 225 227 229 234 234 240 251 256 254 253 247 242 235 223 225 241 237 244
147 163 178 191 202 211 217 220 219 220 223 221 222 221 220 220 223 220 223 226 225 231 234 234 236 234 233 233 239 233 232 235 241 245 248 247 243 234 225 222 235 239 238
81 73 67 79 101 235 246 242 233 231 236 229 227 229 230 233 229 220 220 236 234 234 238 239 243 242 241 235 237 239 237 239 241 244 248 247 246 240 235 236 238 244 253
59 50 42 41 37 35 12 351 315 274 256 250 251 248 245 244 252 234 227 239 253 255 253 253 257 258 253 245 240 240 243 243 240 244 253 255 256 253 250 248 242 243 248
58 50 43 38 33 32 33 19 8 356 341 316 286 272 271 272 246 221 238 246 261 267 270 268 265 268 272 272 268 258 247 246 243 243 246 252 254 255 254 254 255 257 254
57 51 46 43 38 32 29 21 16 7 352 330 334 328 319 312 330 192 229 275 274 278 279 281 279 274 274 278 276 272 267 259 253 246 237 239 241 245 246 252 251 250 255
50 47 43 38 40 39 27 14 6 355 344 339 339 334 328 322 335 174 199 284 292 295 293 289 287 302 319 320 297 286 277 273 274 273 259 250 247 247 239 236 242 247 251
48 41 34 23 23 43 28 2 346 342 330 314 306 306 307 318 52 146 179 293 314 313 308 306 308 332 334 322 306 286 278 281 281 274 270 262 251 245 240 235 232 236 242
46 38 25 14 7 15 1 342 324 315 313 314 324 331 339 14 48 95 149 277 320 316 307 305 310 327 322 310 298 280 275 277 276 270 266 262 257 252 245 239 233 231 233
37 21 360 340 326 338 334 326 322 329 339 352 357 350 345 355 14 44 29 335 314 304 302 309 314 310 305 296 280 274 273 271 267 264 262 260 258 256 254 250 244 239 235
12 349 318 298 305 334 320 314 330 338 344 347 339 331 329 330 352 6 350 328 319 310 312 313 308 293 283 274 275 274 265 259 255 259 262 263 263 260 256 252 250 246 245
347 334 321 320 327 311 293 293 296 292 281 278 303 310 314 317 337 340 325 318 316 309 312 305 299 296 294 291 288 284 279 274 267 262 263 265 265 264 262 259 256 251 248
343 339 332 330 336 330 322 319 302 283 248 236 252 276 305 320 328 323 313 303 297 297 303 297 295 296 297 300 301 299 296 291 287 283 278 273 271 269 267 264 261 256 253
327 316 318 325 329 329 327 323 322 315 272 252 261 277 286 308 317 311 305 303 296 290 290 291 295 299 302 304 304 301 299 298 296 290 286 283 280 277 273 270 266 261 257
320 315 319 329 331 323 321 327 330 334 335 336 317 306 300 305 306 301 303 312 307 304 303 304 305 307 308 308 307 306 304 302 299 294 286 282 281 277 272 271 268 263 260
319 320 336 333 318 319 333 338 336 338 336 335 335 337 341 323 308 305 311 314 314 315 315 315 314 314 313 311 308 306 305 302 300 298 294 286 280 280 278 274 271 267 261
317 323 329 323 320 334 344 341 337 338 336 336 335 338 344 335 327 326 327 324 318 317 318 317 316 315 314 312 309 307 305 304 303 300 296 293 289 282 279 278 274 271 267
329 330 332 331 345 354 349 341 340 341 338 337 335 342 345 331 326 328 328 327 326 323 321 320 318 315 312 311 311 310 309 307 307 309 308 303 297 292 286 281 278 273 269
321 331 344 349 353 2 350 342 345 345 341 340 337 336 338 334 332 330 329 327 324 322 322 318 314 311 311 310 311 311 310 311 314 315 312 308 303 299 295 290 287 281 273
331 346 354 1 358 357 352 355 351 346 342 340 337 336 336 335 332 330 327 325 323 323 320 317 314 312 313 313 311 310 312 316 319 316 312 307 304 301 297 293 289 284 275
356 8 6 1 359 357 352 350 348 345 342 340 338 337 336 334 331 329 329 326 325 322 319 317 315 317 319 322 318 315 316 319 319 313 308 303 300 297 297 295 292 285 278
19 19 8 3 360 354 349 348 348 346 344 343 341 338 337 335 332 331 329 327 326 324 323 323 320 321 321 321 322 323 324 319 312 311 307 299 295 294 294 297 299 298 294
24 18 8 2 359 355 352 350 349 346 345 343 341 339 337 334 334 334 333 331 330 328 325 323 321 323 324 325 326 325 320 315 312 307 303 296 293 293 298 298 300 299 297
Height
1526 1529 1532 1534 1536 1538 1539 1541 1543 1544 1545 1546 1546 1546 1547 1548 1549 1549 1550 1552 1552 1553 1553 1554 1554 1554 1555 1555 1556 1556 1556 1557 1556 1555 1556 1556 1555 1554 1554 1552 1551 1550 1549
1523 1526 1528 1531 1533 1534 1536 1537 1539 1540 1541 1542 1542 1543 1544 1545 1545 1546 1547 1548 1549 1549 1550 1550 1550 1551 1551 1551 1552 1552 1552 1552 1552 1551 1551 1551 1550 1550 1549 1547 1546 1545 1545
1520 1522 1524 1526 1528 1530 1532 1533 1535 1536 1537 1538 1539 1539 1540 1541 1542 1542 1543 1544 1544 1545 1545 1546 1546 1547 1547 1547 1547 1547 1547 1547 1547 1546 1545 1545 1545 1545 1544 1543 1542 1541 1540
1516 1518 1520 1522 1525 1526 1528 1529 1530 1531 1533 1534 1535 1536 1536 1537 1538 1538 1539 1539 1540 1540 1540 1541 1541 1541 1541 1542 1542 1541 1541 1541 1541 1541 1540 1539 1539 1539 1538 1537 1536 1535 1534
1513 1514 1515 1518 1521 1522 1523 1524 1526 1527 1528 1528 1530 1531 1532 1532 1532 1533 1534 1534 1534 1535 1535 1535 1535 1536 1536 1536 1536 1536 1536 1535 1535 1534 1533 1533 1533 1533 1532 1531 1530 1530 1529
1510 1511 1512 1513 1515 1518 1519 1520 1521 1523 1523 1523 1524 1526 1527 1527 1528 1528 1528 1529 1529 1529 1529 1529 1530 1530 1529 1529 1529 1529 1529 1529 1528 1528 1527 1526 1525 1526 1526 1525 1524 1523 1522
1508 1510 1512 1513 1514 1515 1516 1517 1517 1518 1519 1520 1521 1521 1522 1522 1522 1522 1523 1523 1523 1524 1524 1523 1523 1523 1523 1522 1521 1521 1521 1521 1521 1520 1518 1517 1518 1518 1519 1518 1517 1516 1514
1509 1510 1511 1512 1513 1513 1513 1513 1513 1514 1515 1516 1516 1516 1516 1516 1516 1516 1516 1517 1517 1517 1517 1517 1516 1516 1516 1515 1514 1512 1511 1511 1511 1511 1509 1508 1509 1509 1510 1509 1508 1507 1506
1510 1511 1511 1512 1512 1512 1511 1511 1511 1511 1511 1511 1512 1512 1511 1511 1511 1511 1511 1511 1510 1510 1510 1510 1509 1508 1508 1507 1505 1503 1502 1501 1501 1500 1499 1498 1499 1499 1500 1500 1499 1498 1495
1512 1512 1512 1512 1511 1510 1511 1510 1510 1510 1510 1510 1510 1509 1508 1507 1507 1506 1506 1505 1504 1504 1503 1503 1502 1501 1499 1498 1496 1493 1491 1490 1491 1490 1489 1488 1487 1487 1488 1488 1488 1487 1485
1513 1513 1513 1512 1511 1511 1511 1510 1509 1509 1508 1508 1507 1507 1506 1505 1504 1502 1501 1500 1499 1497 1496 1495 1494 1493 1490 1489 1487 1484 1482 1481 1479 1478 1476 1476 1475 1475 1475 1475 1475 1475 1474
1514 1514 1514 1513 1512 1512 1511 1510 1510 1509 1508 1507 1506 1505 1504 1503 1501 1499 1497 1496 1494 1492 1490 1488 1486 1484 1481 1479 1477 1475 1473 1471 1469 1466 1464 1463 1463 1463 1463 1463 1463 1462 1462
1515 1515 1515 1514 1514 1513 1512 1511 1510 1509 1507 1506 1505 1503 1502 1500 1498 1496 1494 1492 1489 1487 1484 1481 1478 1475 1472 1469 1467 1465 1463 1460 1458 1456 1453 1452 1452 1452 1452 1451 1451 1451 1450
1517 1516 1516 1515 1514 1513 1511 1510 1509 1508 1506 1505 1503 1501 1500 1498 1495 1493 1490 1487 1484 1481 1477 1473 1470 1466 1463 1460 1457 1455 1453 1451 1448 1446 1443 1442 1441 1441 1440 1440 1440 1439 1439
1518 1517 1516 1515 1514 1512 1511 1509 1507 1506 1505 1503 1501 1498 1496 1493 1491 1489 1486 1482 1478 1475 1470 1465 1462 1458 1455 1453 1450 1447 1445 1443 1440 1438 1435 1433 1431 1430 1429 1429 1429 1428 1428
1518 1517 1516 1514 1513 1511 1509 1507 1505 1504 1501 1499 1496 1494 1491 1489 1486 1483 1480 1476 1473 1469 1465 1460 1456 1453 1450 1447 1443 1440 1437 1434 1432 1429 1426 1424 1422 1420 1418 1418 1418 1417 1416
1517 1516 1514 1513 1511 1509 1507 1504 1502 1500 1498 1495 1492 1490 1487 1483 1480 1477 1474 1470 1467 1464 1459 1455 1452 1448 1444 1441 1437 1433 1429 1426 1423 1420 1418 1415 1412 1410 1409 1407 1407 1406 1405
1516 1514 1513 1511 1508 1506 1504 1502 1499 1497 1494 1492 1489 1486 1482 1479 1475 1472 1469 1464 1461 1458 1455 1451 1446 1442 1439 1434 1430 1426 1422 1419 1415 1412 1409 1406 1404 1402 1400 1398 1397 1396 1395
1514 1512 1510 1508 1506 1504 1501 1499 1496 1494 1491 1488 1485 1482 1478 1474 1471 1468 1464 1460 1456 1453 1449 1445 1441 1436 1432 1428 1424 1420 1415 1411 1407 1404 1400 1397 1395 1393 1391 1389 1387 1386 1386
1511 1509 1507 1505 1503 1501 1498 1496 1494 1491 1488 1485 1482 1478 1474 1470 1466 1463 1460 1456 1452 1448 1443 1439 1435 1431 1426 1422 1417 1413 1408 1404 1400 1395 1392 1389 1387 1385 1382 1380 1379 1377 1376
1509 1507 1505 1503 1500 1498 1495 1493 1491 1488 1485 1482 1479 1475 1471 1467 1463 1459 1455 1451 1447 1443 1438 1433 1429 1424 1420 1416 1411 1407 1402 1398 1394 1389 1385 1382 1380 1377 1375 1373 1371 1370 1369
1506 1504 1502 1500 1498 1495 1492 1490 1488 1485 1482 1478 1475 1471 1467 1463 1459 1455 1451 1447 1443 1438 1433 1428 1423 1419 1414 1410 1405 1401 1396 1392 1388 1384 1379 1376 1373 1371 1369 1366 1364 1362 1361
1504 1502 1500 1497 1495 1492 1490 1487 1485 1482 1479 1475 1472 1468 1464 1460 1456 1452 1447 1442 1437 1433 1428 1423 1418 1413 1409 1404 1400 1396 1391 1387 1383 1379 1374 1371 1367 1365 1362 1360 1357 1356 1354
1502 1500 1497 1495 1493 1491 1488 1485 1483 1480 1476 1473 1469 1465 1461 1457 1453 1448 1443 1438 1433 1428 1423 1418 1413 1408 1403 1398 1394 1390 1386 1382 1377 1373 1369 1366 1362 1359 1357 1354 1352 1350 1349
1500 1497 1496 1494 1491 1489 1487 1484 1481 1478 1475 1471 1467 1463 1459 1455 1450 1445 1440 1435 1429 1424 1418 1413 1408 1403 1398 1394 1389 1384 1380 1376 1372 1368 1364 1360 1357 1354 1352 1349 1347 1346 1345
1498 1496 1495 1493 1490 1488 1486 1483 1480 1477 1473 1470 1466 1462 1457 1453 1448 1443 1437 1432 1426 1420 1415 1409 1404 1399 1394 1389 1384 1379 1375 1370 1366 1363 1359 1355 1352 1350 1348 1346 1344 1342 1342